Home > Weather > Las Palmas > Past weeks

Flag for Spain Weather for the Past 2 Weeks in Las Palmas, Canary Islands, Spain

Now
66 °F

Scattered clouds.


Feels Like: 66 °F
Forecast: 65 / 71 °F
Wind: 25 mph from North

Location: Las Palmas De Gran Canaria / Gando

Current Time: Apr 30, 2016 at 9:59:54 PM

Latest Report: Apr 30, 2016 at 9:30 PM


Visibility: N/A

Pressure: 30.09 "Hg

Humidity: 68%

Dew Point: 55 °F

Location of Las PalmasLocation

Historic Weather in Las Palmas — Graph

°F

Las Palmas Temperature Yesterday

Maximum temperature yesterday: 73 °F (at 12:00 PM)
Minimum temperature yesterday: 64 °F (at 12:00 AM)
Average temperature yesterday: 69 °F

High & Low Weather Summary for the Past Weeks

 TemperatureHumidityPressure
High75 °F (Apr 19, 12:30 PM)83% (Apr 15, 10:00 PM)30.15 "Hg (Apr 15, 10:00 PM)
Low59 °F (Apr 20, 5:00 AM)44% (Apr 25, 1:30 PM)29.89 "Hg (Apr 18, 5:30 AM)
Average68 °F66%30.03 "Hg
* Reported Apr 15 9:30 PM — Apr 30 9:00 PM, Las Palmas, Weather by CustomWeather, © 2016

Note: Actual official high and low records may vary slightly from our data, if they occured in-between our weather recording intervals... More about our weather records

Advertising

Las Palmas Weather History for the Previous 24 Hours

Scroll right to see more
 ConditionsComfort  
Time TempWeatherWind HumidityBarometerVisibility
9:00 PM
Sat, Apr 30
66 °FScattered clouds.28 mph73%30.09 "HgN/A
8:30 PM68 °FPartly sunny.25 mph73%30.09 "HgN/A
8:00 PM68 °FPartly sunny.28 mph73%30.07 "HgN/A
7:30 PM68 °FScattered clouds.28 mph69%30.07 "HgN/A
7:00 PM68 °FPartly sunny.25 mph69%30.07 "HgN/A
6:30 PM68 °FScattered clouds.25 mph69%30.07 "HgN/A
6:00 PM70 °FScattered clouds.26 mph64%30.07 "HgN/A
5:30 PM72 °FPassing clouds.28 mph61%30.07 "HgN/A
5:00 PM72 °FPassing clouds.28 mph61%30.07 "HgN/A
4:30 PM73 °FPassing clouds.25 mph53%30.07 "HgN/A
4:00 PM73 °FPassing clouds.28 mph53%30.09 "HgN/A
3:30 PM73 °FPassing clouds.28 mph61%30.09 "HgN/A
3:00 PM73 °FPassing clouds.28 mph57%30.09 "HgN/A
2:30 PM73 °FPassing clouds.28 mph61%30.09 "HgN/A
2:00 PM73 °FPassing clouds.28 mph57%30.09 "HgN/A
1:30 PM73 °FPassing clouds.26 mph61%30.12 "HgN/A
1:00 PM73 °FScattered clouds.25 mph57%30.12 "HgN/A
12:30 PM73 °FScattered clouds.25 mph61%30.12 "HgN/A
12:00 PM72 °FPassing clouds.25 mph65%30.12 "HgN/A
11:30 AM72 °FPassing clouds.25 mph61%30.12 "HgN/A
11:00 AM72 °FScattered clouds.23 mph65%30.12 "HgN/A
10:30 AM70 °FScattered clouds.23 mph69%30.12 "HgN/A
10:00 AM68 °FPartly sunny.21 mph69%30.09 "HgN/A
9:30 AM68 °FScattered clouds.23 mph69%30.09 "HgN/A
9:00 AM68 °FPartly sunny.21 mph69%30.09 "HgN/A
8:30 AM66 °FPartly sunny.20 mph78%30.07 "HgN/A
8:00 AM66 °FPassing clouds.18 mph73%30.07 "HgN/A
7:30 AM66 °FPassing clouds.16 mph73%30.07 "HgN/A
7:00 AM66 °FPassing clouds.16 mph73%30.07 "HgN/A
6:30 AM66 °FPassing clouds.18 mph73%30.04 "HgN/A
6:00 AM66 °FPassing clouds.17 mph73%30.04 "HgN/A
5:30 AM66 °FPassing clouds.20 mph73%30.04 "HgN/A
5:00 AM66 °FPassing clouds.18 mph73%30.04 "HgN/A
4:30 AM66 °FPassing clouds.17 mph73%30.04 "HgN/A
3:30 AM66 °FPassing clouds.17 mph73%30.04 "HgN/A
3:00 AM66 °FPassing clouds.17 mph73%30.04 "HgN/A
2:30 AM66 °FPassing clouds.17 mph73%30.04 "HgN/A
2:00 AM66 °FPassing clouds.15 mph78%30.07 "HgN/A
1:30 AM66 °FPassing clouds.16 mph78%30.07 "HgN/A
12:30 AM66 °FPassing clouds.20 mph78%30.07 "HgN/A
12:00 AM66 °FPartly cloudy.18 mph78%30.07 "HgN/A
11:30 PM
Fri, Apr 29
66 °FPassing clouds.18 mph78%30.04 "HgN/A
11:00 PM66 °FPassing clouds.21 mph78%30.04 "HgN/A
10:30 PM68 °FPassing clouds.20 mph73%30.04 "HgN/A
10:00 PM68 °FPassing clouds.20 mph73%30.04 "HgN/A
9:30 PM68 °FPassing clouds.20 mph73%30.01 "HgN/A
9:00 PM68 °FPassing clouds.18 mph73%30.01 "HgN/A
Weather by CustomWeather, © 2016

See weather overviewHow to use our weather pages